TimeEDT,TemperatureF,Dew PointF,Humidity,Sea Level PressureIn,VisibilityMPH,Wind Direction,Wind SpeedMPH,Gust SpeedMPH,PrecipitationIn,Events,Conditions,WindDirDegrees,DateUTC
12:15 AM,59.9,56.3,88,30.20,10.0,Calm,Calm,-,N/A,,Unknown,0,2013-05-28 04:15:00
12:35 AM,59.5,56.3,89,30.20,10.0,Calm,Calm,-,N/A,,Unknown,0,2013-05-28 04:35:00
12:55 AM,59.0,56.5,91,30.20,10.0,Calm,Calm,-,N/A,,Unknown,0,2013-05-28 04:55:00
1:15 AM,59.4,57.2,93,30.20,10.0,Calm,Calm,-,N/A,,Unknown,0,2013-05-28 05:15:00
1:35 AM,59.9,57.2,91,30.20,10.0,Calm,Calm,-,N/A,,Unknown,0,2013-05-28 05:35:00
1:55 AM,59.7,57.7,93,30.20,10.0,Calm,Calm,-,N/A,,Unknown,0,2013-05-28 05:55:00
2:15 AM,59.4,57.4,93,30.19,10.0,Calm,Calm,-,N/A,,Unknown,0,2013-05-28 06:15:00
2:35 AM,59.4,57.6,94,30.19,7.0,Calm,Calm,-,N/A,,Unknown,0,2013-05-28 06:35:00
2:55 AM,59.4,57.4,93,30.18,10.0,Calm,Calm,-,N/A,,Unknown,0,2013-05-28 06:55:00
3:15 AM,59.0,57.0,93,30.18,10.0,Calm,Calm,-,N/A,,Unknown,0,2013-05-28 07:15:00
3:35 AM,58.5,56.8,94,30.18,10.0,Calm,Calm,-,N/A,,Unknown,0,2013-05-28 07:35:00
3:55 AM,57.7,56.1,94,30.17,10.0,Calm,Calm,-,N/A,,Unknown,0,2013-05-28 07:55:00
4:15 AM,57.7,56.5,96,30.18,10.0,Calm,Calm,-,N/A,,Unknown,0,2013-05-28 08:15:00
4:35 AM,56.7,55.6,96,30.17,10.0,Calm,Calm,-,N/A,,Unknown,0,2013-05-28 08:35:00
4:55 AM,56.8,55.6,96,30.18,10.0,Calm,Calm,-,N/A,,Unknown,0,2013-05-28 08:55:00
5:15 AM,57.2,55.9,96,30.19,10.0,Calm,Calm,-,N/A,,Unknown,0,2013-05-28 09:15:00
5:35 AM,57.4,56.3,96,30.19,10.0,Calm,Calm,-,N/A,,Unknown,0,2013-05-28 09:35:00
5:55 AM,58.1,56.7,95,30.20,10.0,Calm,Calm,-,N/A,,Unknown,0,2013-05-28 09:55:00
6:15 AM,58.5,57.0,95,30.21,10.0,Calm,Calm,-,N/A,,Unknown,0,2013-05-28 10:15:00
6:35 AM,59.0,57.2,94,30.21,10.0,Calm,Calm,-,N/A,,Unknown,0,2013-05-28 10:35:00
6:55 AM,59.2,57.4,94,30.22,10.0,Calm,Calm,-,N/A,,Unknown,0,2013-05-28 10:55:00
7:15 AM,59.9,58.1,94,30.22,10.0,Calm,Calm,-,N/A,,Unknown,0,2013-05-28 11:15:00
7:35 AM,60.6,58.6,93,30.23,10.0,Calm,Calm,-,N/A,,Unknown,0,2013-05-28 11:35:00
7:55 AM,60.8,58.8,93,30.24,10.0,Calm,Calm,-,N/A,,Unknown,0,2013-05-28 11:55:00
8:15 AM,61.5,59.0,91,30.24,10.0,Calm,Calm,-,N/A,,Unknown,0,2013-05-28 12:15:00
8:35 AM,62.1,59.0,90,30.24,10.0,Calm,Calm,-,N/A,,Unknown,0,2013-05-28 12:35:00
8:55 AM,63.3,59.0,86,30.25,10.0,Calm,Calm,-,N/A,,Unknown,0,2013-05-28 12:55:00
9:15 AM,64.4,59.9,85,30.25,10.0,Calm,Calm,-,N/A,,Unknown,0,2013-05-28 13:15:00
9:35 AM,66.9,60.3,79,30.25,10.0,Calm,Calm,-,N/A,,Unknown,0,2013-05-28 13:35:00
9:55 AM,69.8,59.4,69,30.25,10.0,Calm,Calm,-,N/A,,Unknown,0,2013-05-28 13:55:00
10:15 AM,72.5,58.1,60,30.25,10.0,West,6.9,-,N/A,,Unknown,280,2013-05-28 14:15:00
10:35 AM,72.1,57.6,60,30.25,10.0,West,3.5,-,N/A,,Unknown,260,2013-05-28 14:35:00
10:55 AM,72.7,58.1,60,30.24,10.0,Calm,Calm,-,N/A,,Unknown,0,2013-05-28 14:55:00
11:15 AM,74.5,58.3,57,30.23,10.0,Calm,Calm,-,N/A,,Unknown,0,2013-05-28 15:15:00
11:35 AM,76.6,59.4,55,30.23,10.0,Calm,Calm,-,N/A,,Unknown,0,2013-05-28 15:35:00
11:55 AM,75.6,58.1,55,30.24,10.0,West,8.1,-,N/A,,Unknown,260,2013-05-28 15:55:00
12:15 PM,76.3,58.6,54,30.23,10.0,SW,4.6,-,N/A,,Unknown,220,2013-05-28 16:15:00
12:35 PM,79.7,58.3,48,30.23,10.0,West,8.1,17.3,N/A,,Unknown,270,2013-05-28 16:35:00
12:55 PM,77.5,58.3,51,30.22,10.0,SW,5.8,-,N/A,,Unknown,220,2013-05-28 16:55:00
1:15 PM,79.5,58.6,49,30.20,10.0,WNW,3.5,-,N/A,,Unknown,290,2013-05-28 17:15:00
1:35 PM,81.7,58.1,44,30.20,10.0,West,5.8,16.1,N/A,,Unknown,260,2013-05-28 17:35:00
1:55 PM,81.3,56.8,43,30.19,10.0,SW,8.1,-,N/A,,Scattered Clouds,230,2013-05-28 17:55:00
2:15 PM,80.8,55.9,42,30.18,10.0,Calm,Calm,-,N/A,,Mostly Cloudy,0,2013-05-28 18:15:00
2:35 PM,82.4,57.0,42,30.18,10.0,SSW,3.5,-,N/A,,Scattered Clouds,210,2013-05-28 18:35:00
2:55 PM,79.9,56.3,44,30.17,10.0,South,5.8,-,N/A,,Mostly Cloudy,180,2013-05-28 18:55:00
3:15 PM,83.5,55.8,39,30.17,10.0,SE,3.5,-,N/A,,Mostly Cloudy,130,2013-05-28 19:15:00
3:35 PM,84.6,47.8,28,30.17,10.0,SW,9.2,19.6,N/A,,Scattered Clouds,230,2013-05-28 19:35:00
3:55 PM,83.8,50.5,31,30.16,10.0,WSW,12.7,18.4,N/A,,Clear,250,2013-05-28 19:55:00
4:15 PM,84.2,52.7,34,30.17,10.0,WSW,10.4,-,N/A,,Clear,240,2013-05-28 20:15:00
4:35 PM,84.2,52.2,33,30.17,10.0,SW,10.4,-,N/A,,Clear,230,2013-05-28 20:35:00
4:55 PM,83.7,53.8,36,30.17,10.0,SW,5.8,-,N/A,,Scattered Clouds,220,2013-05-28 20:55:00
5:15 PM,83.1,56.1,40,30.17,10.0,SSW,3.5,-,N/A,,Mostly Cloudy,200,2013-05-28 21:15:00
5:35 PM,82.9,56.7,41,30.16,10.0,SSE,8.1,16.1,N/A,,Mostly Cloudy,150,2013-05-28 21:35:00
5:55 PM,81.7,56.5,42,30.16,10.0,SSE,9.2,-,N/A,,Mostly Cloudy,160,2013-05-28 21:55:00
6:15 PM,81.5,56.1,42,30.16,10.0,SSE,9.2,-,N/A,,Mostly Cloudy,150,2013-05-28 22:15:00
6:35 PM,80.6,55.9,43,30.16,10.0,SSE,4.6,-,N/A,,Mostly Cloudy,160,2013-05-28 22:35:00
6:55 PM,80.2,55.6,43,30.16,10.0,SSE,5.8,-,N/A,,Mostly Cloudy,160,2013-05-28 22:55:00
7:15 PM,79.7,55.4,43,30.16,10.0,Calm,Calm,-,N/A,,Mostly Cloudy,0,2013-05-28 23:15:00
7:35 PM,78.8,56.3,46,30.17,10.0,South,4.6,-,N/A,,Overcast,170,2013-05-28 23:35:00
7:55 PM,77.2,56.5,49,30.18,10.0,South,5.8,-,N/A,,Scattered Clouds,170,2013-05-28 23:55:00
8:15 PM,75.7,56.3,51,30.18,10.0,South,4.6,-,N/A,,Scattered Clouds,170,2013-05-29 00:15:00
8:35 PM,74.5,56.7,54,30.18,10.0,South,3.5,-,N/A,,Clear,180,2013-05-29 00:35:00
8:55 PM,73.8,56.3,54,30.18,10.0,SSW,3.5,-,N/A,,Clear,210,2013-05-29 00:55:00
9:15 PM,72.9,57.0,57,30.17,10.0,SSE,6.9,-,N/A,,Clear,160,2013-05-29 01:15:00
9:35 PM,71.1,57.6,62,30.18,10.0,SE,4.6,-,N/A,,Clear,140,2013-05-29 01:35:00
9:55 PM,69.3,57.4,66,30.18,10.0,Calm,Calm,-,N/A,,Clear,0,2013-05-29 01:55:00
10:15 PM,67.6,57.4,70,30.20,10.0,West,3.5,-,N/A,,Clear,280,2013-05-29 02:15:00
10:35 PM,66.6,57.4,72,30.20,10.0,Calm,Calm,-,N/A,,Clear,0,2013-05-29 02:35:00
10:55 PM,64.9,57.6,77,30.20,10.0,North,3.5,-,N/A,,Scattered Clouds,350,2013-05-29 02:55:00
11:15 PM,64.0,57.6,79,30.20,10.0,NNW,3.5,-,N/A,,Mostly Cloudy,330,2013-05-29 03:15:00
11:35 PM,64.2,58.1,80,30.20,10.0,Calm,Calm,-,N/A,,Overcast,0,2013-05-29 03:35:00
11:55 PM,63.0,58.3,85,30.20,10.0,Calm,Calm,-,N/A,,Overcast,0,2013-05-29 03:55:00